sat.trackr.live / text

‹ back to catalog

STARLINK-5184

NORAD 54087 · 2022-136AN

PAYLOAD ACTIVE UNKNOWN

§ Identity

Operator
Country
US
Launch date
2022-10-20
Launch site
AFETR
Launch vehicle
Mass (kg)
RCS (m²)

Purposes: comms

External: N2YO · Heavens-Above · Gunter

§ Orbital elements

Epoch: 2026-05-24T23:03:59.751072Z

Period
95.44 min
Inclination
53.2140°
Eccentricity
0.0001303
Mean motion
15.08815566 rev/d
Perigee alt
538.9 km
Apogee alt
540.7 km
Semi-major
6,918.0 km
B*
2.9602e-4
RAAN
351.3656°
Arg perigee
93.1286°
Mean anomaly
266.9855°
Rev number
19,850

§ Raw data

STARLINK-51841 54087U 22136AN  26144.96110823  .00004423  00000+0  29602-3 0  99992 54087  53.2140 351.3656 0001303  93.1286 266.9855 15.08815566198505

JSON: /api/v1/satellites/54087 · /tle

For live sub-satellite position, see the globe view (requires WebGL).

§ Visibility from observer

Set your observer location to see the next 7 days of passes ≥ 10°. The values pass through the URL so the page stays shareable.

No JS? Fill the form by hand. The geolocation button needs JavaScript.